Regional Weather Roundup
Issued by NWS

Home | Current Version | Previous Version | Text Only | Print | Product List | Glossary On
Versions: 1 2 3 4 5 6 7 8 9 10 11 12 13 14 15 16 17 18 19 20 21 22 23 24 25 26 27 28 29 30 31 32 33 34 35 36 37 38 39 40 41 42 43 44 45 46 47 48 49 50
189
ASUS44 KFWD 291615
RWRTX
NORTH TEXAS HOURLY WEATHER ROUNDUP
NATIONAL WEATHER SERVICE FORT WORTH TX
1100 AM CDT WED JUN 29 2016

NOTE: "FAIR" INDICATES FEW OR NO CLOUDS BELOW 12,000 FEET WITH NO
SIGNIFICANT WEATHER AND/OR OBSTRUCTIONS TO VISIBILITY.

TXZ118-119-291700-
DALLAS/FORT WORTH METROPLEX

CITY           SKY/WX    TMP DP  RH WIND       PRES   REMARKS
DFW AIRPORT    PTSUNNY   87  69  54 CALM      30.05F HX  91
DALLAS LOVE    PTSUNNY   87  71  58 CALM      30.05F HX  93
FTW MEACHAM    PTSUNNY   88  69  53 E6        30.05F HX  92
DAL-EXECUTIVE  MOSUNNY   87  68  52 CALM      30.05F HX  90
FTW-ALLIANCE   MOSUNNY   87  69  54 SE3       30.06F HX  91
FTW-NAS-JRB    MOSUNNY   86  68  54 S3        30.06F
FTW-SPINKS     PTSUNNY   84  72  65 CALM      30.08F
ARLINGTON      CLOUDY    88  71  57 CALM      30.06F HX  94
GRAND PRAIRIE  SUNNY     84  70  61 CALM      30.07F
ADDISON        PTSUNNY   84  70  61 CALM      30.07S
MESQUITE       PTSUNNY   86  70  58 CALM      30.05F HX  90
LANCASTER      PTSUNNY   87  71  60 CALM      30.06S HX  92
$$

TXZ091>094-102>105-117-120-121-131>134-291700-
NORTH CENTRAL TEXAS

CITY           SKY/WX    TMP DP  RH WIND       PRES   REMARKS
SHRMAN/DENISON SUNNY     87  69  54 SE5       30.08S HX  91
GAINESVILLE    MOSUNNY   85  71  62 S3        30.10S
BOWIE          SUNNY     86  67  52 S3        30.09S
BRIDGEPORT     SUNNY     85  68  57 SE3       30.09F
DECATUR        SUNNY     84  65  52 E6        30.09S
DENTON         SUNNY     85  70  60 VRB3      30.06F
MCKINNEY       PTSUNNY   85  70  60 VRB7      30.06S
GREENVILLE     SUNNY     88  68  51 SE3       30.07S HX  91
ROCKWALL       CLOUDY    86  71  59 SE6       30.05S HX  91
TERRELL        SUNNY     88  70  55 VRB5      30.05F HX  93
WAXAHACHIE     CLOUDY    85  73  65 SE3       30.06F HX  91
CLEBURNE       MOSUNNY   86  75  70 CALM      30.08F HX  95
GRANBURY       CLOUDY    87  69  55 NE3       30.08F HX  91
$$

TXZ083>090-098>101-113>116-127>130-139>142-154-155-291700-
WESTERN NORTH TEXAS

CITY           SKY/WX    TMP DP  RH WIND       PRES   REMARKS
WICHITA FALLS  SUNNY     86  69  56 W8        30.09R HX  90
WF-KICKAPOO    SUNNY     88  66  48 W3        30.10R HX  91
VERNON         MOSUNNY   84  62  46 N9        30.10F
ABILENE        SUNNY     81  70  69 W3        30.12F
ABILENE-DYESS  SUNNY     82  69  64 CALM      30.11F
CISCO          FAIR      81  70  69 CALM      30.12F
BRECKENRIDGE   SUNNY     86  68  54 CALM      30.08F HX  90
GRAHAM         SUNNY     86  67  52 S3        30.08R
MINERAL WELLS  SUNNY     85  69  58 CALM      30.06F
STEPHENVILLE   SUNNY     84  66  55 CALM      30.12S
COMANCHE       MOSUNNY   83  69  61 NE5       30.10F
BROWNWOOD      PTSUNNY   84  66  54 N6        30.10S
COLEMAN        MOSUNNY   84  65  51 CALM      30.12S
$$

TXZ143>147-156>162-174-175-291700-
CENTRAL TEXAS

CITY           SKY/WX    TMP DP  RH WIND       PRES   REMARKS
WACO           PTSUNNY   85  70  60 MISG      30.04F
WACO-TSTC      PTSUNNY   84  73  70 CALM      30.05S HX  91
WACO-MCGREGOR  MOSUNNY   85  72  65 NE5       30.05S HX  91
HILLSBORO      MOSUNNY   84  72  65 NE7       30.06S
CORSICANA      PTSUNNY   88  72  58 NE7       30.05F HX  94
MEXIA          MOSUNNY   86  72  62 NE5       30.03F HX  91
CAMERON        MOSUNNY   85  73  66 N3        30.03S HX  92
TEMPLE         MOSUNNY   86  74  67 VRB6      30.05F HX  94
KILLEEN        MOSUNNY   83  73  70 NE6       30.06S
KILLEEN-SKYLRK SUNNY     84  74  71 NE7       30.06F HX  91
FORT HOOD      SUNNY     82  72  72 NE5       30.04F
GATESVILLE     MOSUNNY   82  73  74 CALM      30.08F
HAMILTON       MOSUNNY   84  72  68 E5        30.10S
LAMPASAS       MOSUNNY   81  73  77 CALM      30.07S
$$

TXZ095>097-106>112-122>126-135>138-148>153-164>167-291700-
EAST TEXAS

CITY           SKY/WX    TMP DP  RH WIND       PRES   REMARKS
PARIS          SUNNY     88  64  45 SE10      30.07S
SULPHUR SPRNGS SUNNY     87  69  55 NE7       30.08S HX  91
MOUNT PLEASANT SUNNY     88  67  50 NE8       30.07S HX  91
GILMER         MOSUNNY   85  70  59 NE7       30.05S
MINEOLA        SUNNY     88  72  58 E3        30.06S HX  94
TYLER          SUNNY     89  69  51 E7        30.04F HX  93
LONGVIEW       MOSUNNY   87  73  62 VRB7      30.03S HX  94
MARSHALL       SUNNY     85  71  63 NE5       30.06S HX  90
ATHENS         SUNNY     86  68  54 NE5       30.02F
PALESTINE      MOSUNNY   84  74  71 NE6       30.04S HX  91
JACKSONVILLE   PTSUNNY   84  73  69 NE3       30.06S
HENDERSON      PTSUNNY   85  70  60 NE5       30.05F
CENTER         FAIR     N/A N/A N/A MISG      30.02S
NACOGDOCHES    MOSUNNY   86  73  66 NE6       30.02R HX  93
LUFKIN         MOSUNNY   85  73  67 N6        30.01S HX  91
$$

SUPPLEMENTAL OBSERVATIONS (CENTRAL)

CITY           SKY/WX    TMP DP  RH WIND       PRES   REMARKS
LAKE TEXOMA      N/A     86  68  54 SW1         N/A
PAT MAYSE LAKE   N/A     84  70  61 SE5         N/A
GREENVILLE       N/A     88  68  51 E7          N/A  HX  91
CEDAR HILL       N/A     88  72  58 N3          N/A  HX  94
LAKE LIMESTONE   N/A     84  73  70 N7          N/A  HX  91
MCGREGOR         N/A     88  75  66 E5          N/A  HX  97
$$

SUPPLEMENTAL OBSERVATIONS (WEST)

CITY           SKY/WX    TMP DP  RH WIND       PRES   REMARKS
MILLERS CREEK    N/A     84  73  70 N7          N/A  HX  91
COMANCHE         N/A     84  66  54 NE6         N/A
HAMBY            N/A     84  70  61 N2          N/A
IVIE RESERVOIR   N/A     86  68  54 N6          N/A
COLORADO BEND    N/A     86  68  54 SE5         N/A
$$

SUPPLEMENTAL OBSERVATIONS (EAST)

CITY           SKY/WX    TMP DP  RH WIND       PRES   REMARKS
CLARKSVILLE      N/A     90  70  51 E5          N/A  HX  95
TEXARKANA        N/A     90  72  55 E5          N/A  HX  96
LINDEN           N/A     90  70  51 E3          N/A  HX  95
CADDO LAKE       N/A     90  72  55 NE3         N/A  HX  96
GILMER           N/A     90  70  51 E6          N/A  HX  95
HENDERSON        N/A     88  70  55 NE9         N/A  HX  92
N SABINE NF      N/A     90  77  66 MISG        N/A  HX 102
S SABINE NF      N/A     86  73  66 VRB5        N/A  HX  93
$$

SUPPLEMENTAL OBSERVATIONS ARE A COLLECTION OF AUTOMATED INSTRUMENTS
THAT ARE MAINTAINED BY A VARIETY OF FEDERAL AND STATE AGENCIES.
CERTAIN ELEMENTS...SUCH AS HUMIDITY VALUES AND SUSTAINED WIND
SPEEDS...MAY BE APPROXIMATED.





USA.gov is the U.S. government's official web portal to all federal, state and local government web resources and services.